| time (UTC) | temp F | wind direction | speed knots | gust knots | rain 1hr in | rain 24hr in | rain mn in | humidity % | barometer mb |
| 20260510175004 | 57 | 20 | 4.3 | 10.4 | 0.00 | 0.00 | 0.00 | 60 | 1014.0 |
| 20260510174504 | 57 | 4 | 4.3 | 12.2 | 0.00 | 0.00 | 0.00 | 61 | 1014.1 |
| 20260510173504 | 57 | 6 | 5.2 | 10.4 | 0.00 | 0.00 | 0.00 | 60 | 1014.2 |
| 20260510173004 | 57 | 20 | 4.3 | 8.7 | 0.00 | 0.00 | 0.00 | 61 | 1014.2 |
| 20260510172004 | 57 | 354 | 2.6 | 10.4 | 0.00 | 0.00 | 0.00 | 61 | 1014.3 |
| 20260510170504 | 57 | 18 | 4.3 | 10.4 | 0.00 | 0.00 | 0.00 | 61 | 1014.3 |
| 20260510164504 | 57 | 7 | 6.1 | 13.9 | 0.00 | 0.00 | 0.00 | 61 | 1014.4 |
| 20260510164004 | 57 | 15 | 6.1 | 13.9 | 0.00 | 0.00 | 0.00 | 61 | 1014.4 |
| 20260510163005 | 57 | 358 | 6.1 | 14.8 | 0.00 | 0.00 | 0.00 | 61 | 1014.5 |
| 20260510162504 | 57 | 355 | 7.0 | 14.8 | 0.00 | 0.00 | 0.00 | 60 | 1014.6 |
| 20260510161503 | 58 | 2 | 5.2 | 12.2 | 0.00 | 0.00 | 0.00 | 62 | 1014.6 |
| 20260510155004 | 57 | 22 | 6.1 | 12.2 | 0.00 | 0.00 | 0.00 | 64 | 1014.8 |
| 20260510154504 | 57 | 13 | 6.1 | 12.2 | 0.00 | 0.00 | 0.00 | 65 | 1014.9 |
| 20260510153504 | 57 | 22 | 6.1 | 13.0 | 0.00 | 0.00 | 0.00 | 66 | 1014.9 |
| 20260510153004 | 57 | 11 | 7.8 | 13.0 | 0.00 | 0.00 | 0.00 | 65 | 1015.0 |
| 20260510152504 | 57 | 14 | 5.2 | 13.0 | 0.00 | 0.00 | 0.00 | 65 | 1015.1 |
| 20260510152004 | 57 | 3 | 5.2 | 17.4 | 0.00 | 0.00 | 0.00 | 65 | 1015.2 |
| 20260510151504 | 57 | 13 | 6.1 | 17.4 | 0.00 | 0.00 | 0.00 | 65 | 1015.1 |
| 20260510151004 | 57 | 6 | 5.2 | 12.2 | 0.00 | 0.00 | 0.00 | 65 | 1015.2 |
| 20260510145504 | 58 | 17 | 5.2 | 13.0 | 0.00 | 0.00 | 0.00 | 65 | 1015.3 |
| 20260510145004 | 58 | 2 | 4.3 | 14.8 | 0.00 | 0.00 | 0.00 | 64 | 1015.3 |
| 20260510144004 | 58 | 356 | 7.0 | 14.8 | 0.00 | 0.00 | 0.00 | 64 | 1015.4 |
| 20260510143004 | 59 | 348 | 6.1 | 13.9 | 0.00 | 0.00 | 0.00 | 64 | 1015.5 |
| 20260510142004 | 59 | 359 | 5.2 | 13.0 | 0.00 | 0.00 | 0.00 | 64 | 1015.5 |
| 20260510141504 | 59 | 349 | 6.1 | 13.9 | 0.00 | 0.00 | 0.00 | 64 | 1015.6 |
| 20260510141004 | 59 | 21 | 7.0 | 14.8 | 0.00 | 0.00 | 0.00 | 64 | 1015.7 |
| 20260510140504 | 59 | 338 | 5.2 | 14.8 | 0.00 | 0.00 | 0.00 | 64 | 1015.7 |
| 20260510135005 | 59 | 343 | 6.1 | 17.4 | 0.00 | 0.00 | 0.00 | 64 | 1015.7 |
| 20260510134504 | 59 | 13 | 9.6 | 15.6 | 0.00 | 0.00 | 0.00 | 62 | 1015.8 |
| 20260510134004 | 59 | 346 | 6.1 | 13.9 | 0.00 | 0.00 | 0.00 | 62 | 1015.8 |
| 20260510133504 | 60 | 19 | 6.1 | 13.0 | 0.00 | 0.00 | 0.00 | 61 | 1015.8 |
| 20260510132504 | 60 | 358 | 7.0 | 15.6 | 0.00 | 0.00 | 0.00 | 61 | 1015.7 |
| 20260510131504 | 60 | 12 | 5.2 | 13.0 | 0.00 | 0.00 | 0.00 | 60 | 1015.7 |
| 20260510130004 | 61 | 23 | 7.8 | 17.4 | 0.00 | 0.00 | 0.00 | 60 | 1015.8 |
| 20260510125504 | 61 | 23 | 7.8 | 17.4 | 0.00 | 0.00 | 0.00 | 57 | 1015.8 |
| 20260510125004 | 61 | 17 | 6.1 | 17.4 | 0.00 | 0.00 | 0.00 | 60 | 1015.8 |
| 20260510124504 | 61 | 5 | 7.8 | 12.2 | 0.00 | 0.00 | 0.00 | 60 | 1015.8 |
| 20260510122004 | 61 | 2 | 6.1 | 15.6 | 0.00 | 0.00 | 0.00 | 61 | 1015.9 |
| 20260510121504 | 61 | 5 | 7.0 | 15.6 | 0.00 | 0.00 | 0.00 | 61 | 1016.0 |
| 20260510120504 | 61 | 347 | 6.1 | 14.8 | 0.00 | 0.00 | 0.00 | 60 | 1016.0 |
| 20260510115004 | 60 | 5 | 7.0 | 13.0 | 0.00 | 0.00 | 0.00 | 60 | 1016.2 |
| 20260510113004 | 61 | 7 | 5.2 | 13.9 | 0.00 | 0.00 | 0.00 | 60 | 1016.3 |
| 20260510112504 | 62 | 21 | 5.2 | 13.9 | 0.00 | 0.00 | 0.00 | 59 | 1016.4 |
| 20260510111503 | 60 | 55 | 5.2 | 14.8 | 0.00 | 0.00 | 0.00 | 61 | 1016.5 |
| 20260510111004 | 59 | 68 | 6.1 | 14.8 | 0.00 | 0.00 | 0.00 | 63 | 1016.6 |
| 20260510110504 | 59 | 25 | 5.2 | 13.0 | 0.00 | 0.00 | 0.00 | 64 | 1016.7 |
| 20260510105504 | 59 | 4 | 7.0 | 13.0 | 0.00 | 0.00 | 0.00 | 64 | 1016.6 |
| 20260510104004 | 59 | 34 | 4.3 | 11.3 | 0.00 | 0.00 | 0.00 | 65 | 1016.7 |
| 20260510103504 | 58 | 30 | 6.1 | 11.3 | 0.00 | 0.00 | 0.00 | 64 | 1016.8 |
| 20260510103004 | 58 | 14 | 7.0 | 12.2 | 0.00 | 0.00 | 0.00 | 64 | 1016.8 |
| 20260510102004 | 59 | 10 | 6.1 | 12.2 | 0.00 | 0.00 | 0.00 | 63 | 1016.9 |
| 20260510101004 | 59 | 14 | 7.0 | 13.9 | 0.00 | 0.00 | 0.00 | 63 | 1016.9 |
| 20260510100504 | 60 | 345 | 6.1 | 13.9 | 0.00 | 0.00 | 0.00 | 63 | 1016.9 |
| 20260510100005 | 59 | 17 | 6.1 | 13.9 | 0.00 | 0.00 | 0.00 | 63 | 1017.0 |
| 20260510095504 | 59 | 45 | 6.1 | 17.4 | 0.00 | 0.00 | 0.00 | 61 | 1017.0 |
| 20260510094004 | 60 | 349 | 6.1 | 12.2 | 0.00 | 0.00 | 0.00 | 62 | 1016.9 |
| 20260510093004 | 59 | 12 | 5.2 | 17.4 | 0.00 | 0.00 | 0.00 | 64 | 1017.1 |
| 20260510092004 | 58 | 3 | 5.2 | 13.9 | 0.00 | 0.00 | 0.00 | 64 | 1017.1 |
| 20260510090504 | 57 | 358 | 5.2 | 13.9 | 0.00 | 0.00 | 0.00 | 67 | 1017.2 |
| 20260510085504 | 56 | 10 | 5.2 | 11.3 | 0.00 | 0.00 | 0.00 | 68 | 1017.4 |
| 20260510082004 | 55 | 16 | 5.2 | 18.2 | 0.00 | 0.00 | 0.00 | 71 | 1017.4 |
| 20260510081005 | 55 | 22 | 5.2 | 12.2 | 0.00 | 0.00 | 0.00 | 70 | 1017.4 |
| 20260510080005 | 54 | 356 | 6.1 | 13.9 | 0.00 | 0.00 | 0.00 | 72 | 1017.4 |
| 20260510074004 | 53 | 16 | 7.8 | 13.9 | 0.00 | 0.00 | 0.00 | 74 | 1017.4 |
| 20260510073504 | 53 | 23 | 6.1 | 13.9 | 0.00 | 0.00 | 0.00 | 74 | 1017.4 |
| 20260510072003 | 52 | 3 | 5.2 | 10.4 | 0.00 | 0.00 | 0.00 | 77 | 1017.3 |
| 20260510071504 | 52 | 14 | 5.2 | 11.3 | 0.00 | 0.00 | 0.00 | 77 | 1017.3 |
| 20260510070004 | 51 | 7 | 6.1 | 13.9 | 0.00 | 0.00 | 0.00 | 78 | 1017.2 |
| 20260510065505 | 51 | 39 | 4.3 | 12.2 | 0.00 | 0.00 | 0.00 | 79 | 1017.2 |
| 20260510065004 | 51 | 41 | 5.2 | 12.2 | 0.00 | 0.00 | 0.00 | 80 | 1017.1 |
| 20260510063505 | 50 | 27 | 4.3 | 11.3 | 0.00 | 0.00 | 0.00 | 80 | 1017.0 |
| 20260510062504 | 50 | 11 | 3.5 | 7.8 | 0.00 | 0.00 | 0.00 | 81 | 1016.9 |
| 20260510055504 | 50 | 27 | 3.5 | 12.2 | 0.00 | 0.00 | 0.00 | 82 | 1016.9 |
| 20260510055004 | 49 | 39 | 1.7 | 12.2 | 0.00 | 0.00 | 0.00 | 83 | 1016.8 |
| 20260510054504 | 49 | 10 | 5.2 | 7.8 | 0.00 | 0.00 | 0.00 | 84 | 1016.9 |
| 20260510054004 | 49 | 22 | 4.3 | 7.8 | 0.00 | 0.00 | 0.00 | 84 | 1017.0 |
| 20260510053504 | 49 | 9 | 2.6 | 7.8 | 0.00 | 0.00 | 0.00 | 84 | 1017.0 |
| 20260510052504 | 48 | 16 | 3.5 | 10.4 | 0.00 | 0.00 | 0.00 | 85 | 1017.0 |
| 20260510051504 | 48 | 6 | 2.6 | 8.7 | 0.00 | 0.00 | 0.00 | 85 | 1017.1 |
| 20260510051004 | 48 | 358 | 2.6 | 8.7 | 0.00 | 0.00 | 0.00 | 85 | 1017.2 |
| 20260510045504 | 48 | 12 | 4.3 | 10.4 | 0.00 | 0.00 | 0.00 | 84 | 1017.1 |
| 20260510044004 | 48 | 9 | 4.3 | 8.7 | 0.00 | 0.00 | 0.00 | 83 | 1017.0 |
| 20260510042504 | 48 | 15 | 4.3 | 7.8 | 0.00 | 0.00 | 0.00 | 81 | 1017.1 |
| 20260510040004 | 49 | 353 | 2.6 | 6.1 | 0.00 | 0.00 | 0.00 | 77 | 1017.2 |
| 20260510035503 | 49 | 347 | 1.7 | 5.2 | 0.00 | 0.00 | 0.00 | 76 | 1017.2 |
| 20260510035004 | 49 | 15 | 1.7 | 5.2 | 0.00 | 0.00 | 0.00 | 75 | 1017.2 |
| 20260510034503 | 49 | 354 | 2.6 | 7.8 | 0.00 | 0.00 | 0.00 | 75 | 1017.1 |
| 20260510034004 | 50 | 354 | 2.6 | 7.8 | 0.00 | 0.00 | 0.00 | 74 | 1017.2 |
| 20260510030504 | 51 | 358 | 2.6 | 8.7 | 0.00 | 0.00 | 0.00 | 71 | 1017.3 |
| 20260510030004 | 51 | 1 | 4.3 | 8.7 | 0.00 | 0.00 | 0.00 | 71 | 1017.3 |
| 20260510025504 | 51 | 25 | 2.6 | 8.7 | 0.00 | 0.00 | 0.00 | 71 | 1017.3 |
| 20260510024004 | 52 | 7 | 4.3 | 10.4 | 0.00 | 0.00 | 0.00 | 70 | 1017.3 |
| 20260510022504 | 52 | 10 | 4.3 | 10.4 | 0.00 | 0.00 | 0.00 | 69 | 1017.2 |
| 20260510015004 | 53 | 349 | 3.5 | 7.8 | 0.00 | 0.00 | 0.00 | 65 | 1017.1 |
| 20260510013504 | 53 | 352 | 4.3 | 10.4 | 0.00 | 0.00 | 0.00 | 63 | 1017.0 |
| 20260510013004 | 54 | 348 | 2.6 | 8.7 | 0.00 | 0.00 | 0.00 | 63 | 1017.0 |
| 20260510012504 | 54 | 2 | 3.5 | 6.1 | 0.00 | 0.00 | 0.00 | 63 | 1017.0 |
| 20260510011004 | 54 | 354 | 2.6 | 6.1 | 0.00 | 0.00 | 0.00 | 64 | 1017.0 |
| 20260510004504 | 54 | 357 | 3.5 | 10.4 | 0.00 | 0.00 | 0.00 | 65 | 1017.0 |
| 20260510003505 | 55 | 344 | 4.3 | 6.1 | 0.00 | 0.00 | 0.00 | 66 | 1016.9 |
| 20260510003004 | 55 | 352 | 3.5 | 6.1 | 0.00 | 0.00 | 0.00 | 66 | 1016.9 |
| 20260510002503 | 55 | 349 | 2.6 | 6.1 | 0.00 | 0.00 | 0.00 | 67 | 1016.9 |
| 20260510001004 | 55 | 356 | 2.6 | 5.2 | 0.00 | 0.00 | 0.00 | 66 | 1017.1 |
| 20260509235504 | 56 | 353 | 1.7 | 2.6 | 0.00 | 0.00 | 0.00 | 66 | 1017.0 |
| 20260509235004 | 56 | 347 | 0.9 | 4.3 | 0.00 | 0.00 | 0.00 | 65 | 1016.9 |
| 20260509233504 | 56 | 342 | 2.6 | 5.2 | 0.00 | 0.00 | 0.00 | 65 | 1016.8 |
| 20260509233004 | 56 | 352 | 2.6 | 7.0 | 0.00 | 0.00 | 0.00 | 65 | 1016.9 |
| 20260509232004 | 56 | 353 | 3.5 | 7.0 | 0.00 | 0.00 | 0.00 | 65 | 1016.8 |
| 20260509230504 | 57 | 342 | 2.6 | 6.1 | 0.00 | 0.00 | 0.00 | 65 | 1016.7 |
| 20260509225004 | 57 | 3 | 3.5 | 7.8 | 0.00 | 0.00 | 0.00 | 65 | 1016.6 |
| 20260509224504 | 57 | 356 | 2.6 | 5.2 | 0.00 | 0.00 | 0.00 | 65 | 1016.6 |
| 20260509224004 | 57 | 341 | 1.7 | 4.3 | 0.00 | 0.00 | 0.00 | 65 | 1016.7 |
| 20260509223004 | 58 | 345 | 1.7 | 5.2 | 0.00 | 0.00 | 0.00 | 64 | 1016.5 |
| 20260509222004 | 58 | 5 | 2.6 | 6.1 | 0.00 | 0.00 | 0.00 | 63 | 1016.4 |
| 20260509221503 | 58 | 9 | 2.6 | 6.1 | 0.00 | 0.00 | 0.00 | 63 | 1016.4 |
| 20260509221003 | 58 | 357 | 2.6 | 6.1 | 0.00 | 0.00 | 0.00 | 63 | 1016.4 |
| 20260509220504 | 58 | 0 | 3.5 | 6.1 | 0.00 | 0.00 | 0.00 | 63 | 1016.4 |
| 20260509220004 | 58 | 344 | 1.7 | 5.2 | 0.00 | 0.00 | 0.00 | 63 | 1016.5 |
| 20260509215504 | 58 | 2 | 1.7 | 5.2 | 0.00 | 0.00 | 0.00 | 63 | 1016.6 |
| 20260509215003 | 59 | 337 | 1.7 | 6.1 | 0.00 | 0.00 | 0.00 | 63 | 1016.6 |
| 20260509213504 | 59 | 344 | 1.7 | 5.2 | 0.00 | 0.00 | 0.00 | 62 | 1016.5 |
| 20260509213004 | 59 | 355 | 2.6 | 6.1 | 0.00 | 0.00 | 0.00 | 62 | 1016.4 |
| 20260509211504 | 60 | 336 | 1.7 | 6.1 | 0.00 | 0.00 | 0.00 | 61 | 1016.1 |
| 20260509211004 | 60 | 348 | 2.6 | 6.1 | 0.00 | 0.00 | 0.00 | 61 | 1016.2 |
| 20260509210004 | 61 | 348 | 1.7 | 5.2 | 0.00 | 0.00 | 0.00 | 60 | 1016.1 |
| 20260509205004 | 61 | 344 | 1.7 | 4.3 | 0.00 | 0.00 | 0.00 | 60 | 1015.9 |
| 20260509204504 | 62 | 332 | 2.6 | 4.3 | 0.00 | 0.00 | 0.00 | 59 | 1015.9 |
| 20260509203504 | 62 | 338 | 2.6 | 4.3 | 0.00 | 0.00 | 0.00 | 59 | 1015.8 |
| 20260509203004 | 63 | 345 | 1.7 | 4.3 | 0.00 | 0.00 | 0.00 | 58 | 1015.8 |
| 20260509202503 | 63 | 334 | 1.7 | 4.3 | 0.00 | 0.00 | 0.00 | 58 | 1015.8 |
| 20260509201504 | 63 | 342 | 1.7 | 4.3 | 0.00 | 0.00 | 0.00 | 57 | 1015.8 |
| 20260509201004 | 64 | 340 | 1.7 | 4.3 | 0.00 | 0.00 | 0.00 | 57 | 1015.8 |
| 20260509200005 | 64 | 343 | 2.6 | 4.3 | 0.00 | 0.00 | 0.00 | 56 | 1015.7 |
| 20260509194004 | 65 | 337 | 2.6 | 5.2 | 0.00 | 0.00 | 0.00 | 55 | 1015.5 |
| 20260509193004 | 66 | 345 | 2.6 | 5.2 | 0.00 | 0.00 | 0.00 | 55 | 1015.4 |
| 20260509191504 | 66 | 0 | 1.7 | 5.2 | 0.00 | 0.00 | 0.00 | 53 | 1015.4 |
| 20260509190006 | 67 | 4 | 1.7 | 5.2 | 0.00 | 0.00 | 0.00 | 53 | 1015.2 |
| 20260509184504 | 68 | 355 | 2.6 | 7.0 | 0.00 | 0.00 | 0.00 | 50 | 1015.2 |
| 20260509184004 | 68 | 5 | 2.6 | 7.0 | 0.00 | 0.00 | 0.00 | 50 | 1015.3 |
| 20260509183506 | 68 | 13 | 4.3 | 7.0 | 0.00 | 0.00 | 0.00 | 49 | 1015.2 |
| 20260509182004 | 68 | 6 | 2.6 | 6.1 | 0.00 | 0.00 | 0.00 | 49 | 1015.2 |
| 20260509180004 | 69 | 16 | 3.5 | 7.8 | 0.00 | 0.00 | 0.00 | 49 | 1015.1 |